TimeEST,TemperatureF,Dew PointF,Humidity,Sea Level PressureIn,VisibilityMPH,Wind Direction,Wind SpeedMPH,Gust SpeedMPH,PrecipitationIn,Events,Conditions,WindDirDegrees,DateUTC
12:51 AM,23.0,12.9,65,29.57,10.0,South,4.6,-,N/A,,Mostly Cloudy,170,2014-02-14 05:51:00
1:51 AM,28.9,12.0,49,29.54,10.0,SSW,11.5,-,N/A,,Overcast,210,2014-02-14 06:51:00
2:51 AM,30.0,12.9,49,29.52,10.0,South,6.9,-,N/A,,Overcast,190,2014-02-14 07:51:00
2:56 AM,30.0,12.9,49,29.49,10.0,South,8.1,-,N/A,,Overcast,190,2014-02-14 07:56:00
3:51 AM,30.9,15.1,52,29.50,10.0,SW,6.9,-,N/A,,Overcast,220,2014-02-14 08:51:00
4:51 AM,30.9,18.0,59,29.50,9.0,SW,6.9,-,0.00,Snow,Light Snow,220,2014-02-14 09:51:00
5:51 AM,32.0,21.9,66,29.52,8.0,WSW,15.0,-,0.00,Snow,Light Snow,250,2014-02-14 10:51:00
6:51 AM,30.9,25.0,79,29.55,4.0,West,13.8,-,0.00,Snow,Light Snow,260,2014-02-14 11:51:00
6:59 AM,30.9,25.0,79,29.52,1.8,West,16.1,-,0.00,Snow,Light Snow,260,2014-02-14 11:59:00
7:08 AM,30.0,25.0,82,29.53,3.0,West,15.0,-,0.01,Snow,Light Snow,260,2014-02-14 12:08:00
7:21 AM,30.0,24.1,79,29.54,4.0,WSW,15.0,-,0.01,Snow,Light Snow,250,2014-02-14 12:21:00
7:51 AM,28.9,23.0,78,29.58,6.0,WSW,18.4,-,0.01,Snow,Light Snow,250,2014-02-14 12:51:00
8:51 AM,28.0,21.9,78,29.63,3.0,WSW,17.3,-,0.00,Snow,Light Snow,250,2014-02-14 13:51:00
9:49 AM,26.6,21.2,80,29.62,2.5,WSW,12.7,-,0.00,Snow,Light Snow,250,2014-02-14 14:49:00
9:51 AM,27.0,21.0,78,29.66,3.0,WSW,15.0,-,0.00,Snow,Light Snow,240,2014-02-14 14:51:00
10:27 AM,27.0,21.0,78,29.64,2.5,WSW,17.3,-,0.00,Snow,Light Snow,240,2014-02-14 15:27:00
10:51 AM,27.0,19.9,75,29.69,2.5,WSW,17.3,-,0.00,Snow,Light Snow,250,2014-02-14 15:51:00
11:00 AM,26.1,19.9,78,29.66,3.0,WSW,18.4,27.6,0.00,Snow,Light Snow,240,2014-02-14 16:00:00
11:15 AM,26.1,19.0,75,29.66,3.0,WSW,17.3,-,0.00,Snow,Light Snow,250,2014-02-14 16:15:00
11:24 AM,26.1,19.9,78,29.66,2.5,WSW,16.1,-,0.00,Snow,Light Snow,250,2014-02-14 16:24:00
11:47 AM,26.6,19.4,74,29.66,3.0,WSW,16.1,-,0.00,Snow,Light Snow,250,2014-02-14 16:47:00
11:51 AM,27.0,19.9,75,29.69,4.0,SW,12.7,-,0.00,Snow,Light Snow,230,2014-02-14 16:51:00
12:51 PM,27.0,19.0,72,29.71,7.0,WSW,13.8,-,0.00,,Overcast,240,2014-02-14 17:51:00
1:51 PM,28.0,18.0,66,29.71,8.0,SW,13.8,-,N/A,,Overcast,230,2014-02-14 18:51:00
2:51 PM,28.0,17.1,63,29.71,9.0,SW,15.0,23.0,N/A,,Overcast,230,2014-02-14 19:51:00
3:51 PM,27.0,17.1,66,29.71,9.0,SW,13.8,-,N/A,,Overcast,220,2014-02-14 20:51:00
4:51 PM,27.0,16.0,63,29.75,9.0,West,13.8,-,N/A,,Overcast,260,2014-02-14 21:51:00
5:51 PM,26.1,16.0,66,29.76,9.0,WSW,10.4,-,N/A,,Overcast,250,2014-02-14 22:51:00
6:51 PM,25.0,16.0,69,29.77,9.0,WSW,8.1,-,N/A,,Overcast,250,2014-02-14 23:51:00
7:51 PM,25.0,15.1,66,29.77,9.0,West,6.9,-,N/A,,Overcast,260,2014-02-15 00:51:00
8:12 PM,24.1,15.1,69,29.75,8.0,West,6.9,-,N/A,,Overcast,260,2014-02-15 01:12:00
8:51 PM,24.1,15.1,69,29.79,8.0,West,5.8,-,N/A,,Overcast,270,2014-02-15 01:51:00
9:51 PM,23.0,15.1,72,29.79,8.0,West,8.1,-,N/A,,Scattered Clouds,270,2014-02-15 02:51:00
10:51 PM,23.0,14.0,68,29.81,8.0,West,8.1,-,N/A,,Mostly Cloudy,280,2014-02-15 03:51:00
11:49 PM,23.0,15.8,74,29.78,8.0,West,5.8,-,N/A,,Overcast,280,2014-02-15 04:49:00
11:51 PM,23.0,15.1,72,29.81,8.0,West,4.6,-,N/A,,Overcast,280,2014-02-15 04:51:00